EW9551 Weather Reports


Display with metric or nautical units.
time (UTC)temp
F
wind
direction
speed
MPH
gust
MPH
rain 1hr
in
rain 24hr
in
rain mn
in
humidity
%
barometer
mb
20260905170441 83 0 0.0 4.0 0.00 0.00 0.00 50 981.7
20260905163427 84 0 0.0 8.0 0.00 0.00 0.00 49 981.6
20260905160428 84 0 0.0 4.0 0.00 0.00 0.00 49 981.5
20260905153428 85 0 0.0 6.0 0.00 0.00 0.00 48 981.5
20260905150430 86 0 0.0 3.0 0.00 0.00 0.00 47 981.7
20260905143427 86 0 0.0 3.0 0.00 0.00 0.00 46 981.9
20260905140428 87 0 0.0 5.0 0.00 0.00 0.00 47 981.9
20260905134810 87 0 0.0 6.0 0.00 0.00 0.00 45 982.1
20260905130425 88 0 0.0 1.0 0.00 0.00 0.00 44 982.3
20260905123424 88 0 0.0 4.0 0.00 0.00 0.00 43 982.3
20260905120423 88 0 0.0 1.0 0.00 0.00 0.00 44 982.5
20260905113423 88 0 0.0 4.0 0.00 0.00 0.00 45 982.5
20260905110435 86 46 0.0 3.0 0.00 0.00 0.00 45 982.6
20260905103423 87 0 0.0 3.0 0.00 0.00 0.00 46 982.7
20260905100423 86 0 0.0 5.0 0.00 0.00 0.00 46 982.9
20260905093415 85 0 0.0 3.0 0.00 0.00 0.00 50 982.9
20260905091755 83 0 0.0 3.0 0.00 0.00 0.00 52 982.8
20260905084751 80 0 0.0 0.0 0.00 0.00 0.00 54 982.5
20260905080413 77 0 0.0 0.0 0.00 0.00 0.00 58 982.2
20260905073423 73 281 0.0 0.0 0.00 0.00 0.00 61 982.1
20260905073014 68 282 0.0 1.0 0.00 0.00 0.00 70 982.0
20260905064631 65 0 0.0 0.0 0.00 0.00 0.00 72 981.9
20260905061632 63 0 0.0 0.0 0.00 0.00 0.00 73 981.8
20260905054631 61 0 0.0 0.0 0.00 0.00 0.00 74 981.8
20260905051631 62 0 0.0 0.0 0.00 0.00 0.00 73 981.5
20260905044630 63 0 0.0 0.0 0.00 0.00 0.00 71 981.1
20260905041630 64 0 0.0 0.0 0.00 0.00 0.00 68 980.9
20260905034628 64 0 0.0 0.0 0.00 0.00 0.00 67 980.7
20260905033012 65 0 0.0 0.0 0.00 0.00 0.00 67 980.5
20260905024629 65 0 0.0 0.0 0.00 0.00 0.00 69 980.3
20260905021628 66 282 0.0 0.0 0.00 0.00 0.00 68 980.1
20260905014628 66 0 0.0 0.0 0.00 0.00 0.00 69 980.1
20260905011624 67 281 0.0 0.0 0.00 0.00 0.00 67 980.1
20260905010005 68 282 0.0 0.0 0.00 0.00 0.00 68 980.3
20260905001624 70 0 0.0 0.0 0.00 0.00 0.00 65 979.8
20260905000013 70 279 0.0 0.0 0.00 0.00 0.00 66 979.7
20260904231622 71 280 0.0 0.0 0.00 0.00 0.00 65 979.7
20260904224621 74 0 0.0 0.0 0.00 0.00 0.00 61 979.3
20260904221619 76 279 0.0 0.0 0.00 0.00 0.00 57 979.2
20260904214619 76 0 0.0 11.0 0.00 0.00 0.00 57 978.9
20260904214406 75 0 0.0 1.0 0.00 0.00 0.00 59 978.5
20260904204618 75 182 0.0 0.0 0.00 0.00 0.00 56 978.0
20260904201616 76 182 0.0 0.0 0.00 0.00 0.00 59 978.1
20260904194614 78 182 0.0 0.0 0.00 0.00 0.00 55 977.8
20260904191613 80 182 0.0 0.0 0.00 0.00 0.00 55 977.7
20260904184614 82 182 0.0 0.0 0.00 0.00 0.00 53 977.3
20260904181613 86 182 0.0 0.0 0.00 0.00 0.00 47 976.8
20260904174614 88 182 0.0 2.0 0.00 0.00 0.00 41 976.6